Location: Newark
(36.2350°N, 59.6408°E)
Time: 23:27:14
(UTC+00:00)

ISS - Pass Details

Date: 23 November 2019
Orbit: 411 x 421 km, 51.6° (Epoch: 15 December)

Event Time Altitude Azimuth Distance (km) Brightness Sun altitude
Rises 13:27:21 0° 225° (SW) 2,338 1.4 -7.9°
Reaches altitude 10° 13:29:26 10° 224° (SW) 1,481 0.2 -8.3°
Maximum altitude 13:32:45 79° 139° (SE) 427 -3.8 -9.0°
Enters shadow 13:35:47 12° 51° (NE) 1,365 -1.7 -9.6°
